Teterboro, NJ

9:14 AM EDT on April 30, 2017 (GMT -0400)
Teterboro

Weather History for KTEB - January, 2012

Change the Weather History Date:

Tuesday, January 3, 2012

  Actual Average Record
Temperature  
Mean Temperature 23 °F -  
Max Temperature 30 °F 39 °F 62 °F (1997)
Min Temperature 15 °F 26 °F 8 °F (2001)
Degree Days  
Heating Degree Days 42    
Moisture  
Dew Point 6 °F    
Average Humidity 46    
Maximum Humidity 69    
Minimum Humidity 34    
Precipitation  
Precipitation 0.00 in - - ()
Sea Level Pressure  
Sea Level Pressure 29.95 in    
Wind  
Wind Speed 11 mph (NW)    
Max Wind Speed 21 mph    
Max Gust Speed 32 mph    
Visibility 10 miles    
Events      
Averages and records for this station are not official NWS values.
T = Trace of Precipitation, MM = Missing Value Source: NWS Daily Summary

Daily Weather History Graph

Daily Weather History Graph

Search for Another Location

Airport or City:

Trip Planner

Search our weather history database for the weather conditions in past years. The results will help you decide how hot, cold, wet, or windy it might be!

Date:

Astronomy

Jan. 03, 2012 Rise Set
Actual Time 7:20 AM EST 4:40 PM EST
Civil Twilight 6:50 AM EST 5:11 PM EST
Nautical Twilight 6:15 AM EST 5:45 PM EST
Astronomical Twilight 5:42 AM EST 6:18 PM EST
Moon 12:27 PM EST (1/3) 2:08 AM EST (1/3)
Length of Visible Light 10h 21m
Length of Day
9h 19m
Waxing Gibbous, 72% of the Moon is Illuminated
Jan 3
Waxing Gibbous
Jan 9
Full
Jan 16
Last Quarter
Jan 23
New
Jan 30
First Quarter

Hourly Weather History & Observations

Time (EST) Temp. Windchill Dew Point Humidity Pressure Visibility Wind Dir Wind Speed Gust Speed Precip Events Conditions
12:51 AM 30.9 °F 26.2 °F 19.9 °F 64% 29.81 in 10.0 mi WSW 4.6 mph - N/A   Scattered Clouds
1:51 AM 30.9 °F 24.3 °F 19.0 °F 61% 29.81 in 10.0 mi West 6.9 mph - N/A   Clear
2:51 AM 30.0 °F 23.2 °F 19.0 °F 64% 29.81 in 10.0 mi West 6.9 mph - N/A   Clear
3:51 AM 28.0 °F 22.8 °F 19.0 °F 69% 29.82 in 10.0 mi WNW 4.6 mph - N/A   Partly Cloudy
4:51 AM 30.0 °F 20.5 °F 16.0 °F 56% 29.82 in 10.0 mi WNW 11.5 mph - N/A   Clear
5:51 AM 28.0 °F 18.1 °F 12.0 °F 51% 29.84 in 10.0 mi WNW 11.5 mph - N/A   Clear
6:51 AM 28.0 °F 17.5 °F 9.0 °F 45% 29.86 in 10.0 mi WNW 12.7 mph 19.6 mph N/A   Clear
7:51 AM 27.0 °F 18.7 °F 12.0 °F 53% 29.89 in 10.0 mi NNW 8.1 mph 17.3 mph N/A   Partly Cloudy
8:51 AM 27.0 °F 14.7 °F 9.0 °F 47% 29.92 in 10.0 mi NW 16.1 mph 23.0 mph N/A   Partly Cloudy
9:51 AM 27.0 °F 13.5 °F 6.1 °F 41% 29.91 in 10.0 mi NNW 19.6 mph 28.8 mph N/A   Clear
10:51 AM 27.0 °F 13.5 °F 6.1 °F 41% 29.91 in 10.0 mi WNW 19.6 mph 26.5 mph N/A   Scattered Clouds
11:51 AM 27.0 °F 13.2 °F 5.0 °F 39% 29.89 in 10.0 mi NW 20.7 mph 27.6 mph N/A   Partly Cloudy
12:51 PM 27.0 °F 13.5 °F 3.9 °F 37% 29.91 in 10.0 mi NW 19.6 mph 26.5 mph N/A   Mostly Cloudy
1:51 PM 27.0 °F 13.5 °F 3.9 °F 37% 29.91 in 10.0 mi NW 19.6 mph 32.2 mph N/A   Mostly Cloudy
2:51 PM 26.1 °F 12.3 °F 3.0 °F 37% 29.94 in 10.0 mi NNW 19.6 mph 26.5 mph N/A   Mostly Cloudy
3:51 PM 25.0 °F 11.7 °F 1.9 °F 37% 29.97 in 10.0 mi NNW 17.3 mph 27.6 mph N/A   Clear
4:51 PM 24.1 °F 11.5 °F -0.0 °F 35% 30.02 in 10.0 mi NNW 15.0 mph 21.9 mph N/A   Clear
5:51 PM 23.0 °F 11.1 °F -2.0 °F 34% 30.06 in 10.0 mi NW 12.7 mph 27.6 mph N/A   Clear
6:51 PM 21.9 °F 8.2 °F -0.9 °F 37% 30.10 in 10.0 mi WNW 16.1 mph 24.2 mph N/A   Clear
7:51 PM 19.9 °F 6.7 °F -2.9 °F 37% 30.12 in 10.0 mi NNW 13.8 mph 25.3 mph N/A   Clear
8:51 PM 19.0 °F 5.0 °F -2.0 °F 40% 30.13 in 10.0 mi NW 15.0 mph 19.6 mph N/A   Clear
9:51 PM 18.0 °F 3.6 °F -2.0 °F 41% 30.14 in 10.0 mi NNW 15.0 mph 20.7 mph N/A   Clear
10:51 PM 16.0 °F 1.7 °F -2.0 °F 45% 30.14 in 10.0 mi NNW 13.8 mph 20.7 mph N/A   Clear
11:51 PM 15.1 °F 1.8 °F -2.0 °F 47% 30.16 in 10.0 mi NW 11.5 mph - N/A   Clear